This is the latest recevied weather packets stored in our database for station/object KD4EED. If no packets are shown the sender has not sent any weather packets the latest 10 day(s).
| Time | Temp. | Humidity | Pressure | Rain* | Wind** | Luminosity | Snow |
|---|---|---|---|---|---|---|---|
| 1788457247 | 24.44° C | 61% | 1012.1 hPa | - | - | 332 W/m² | - |
| 1788456942 | 24.44° C | 62% | 1012.1 hPa | - | - | 129 W/m² | - |
| 1788456639 | 23.89° C | 62% | 1012 hPa | - | - | 137 W/m² | - |
| 1788456338 | 23.89° C | 64% | 1012.1 hPa | - | - | 119 W/m² | - |
| 1788456034 | 23.89° C | 65% | 1012.2 hPa | - | - | 122 W/m² | - |
| 1788455729 | 23.33° C | 64% | 1012.1 hPa | - | - | 132 W/m² | - |
| 1788455425 | 23.33° C | 63% | 1012.2 hPa | - | - | 118 W/m² | - |
| 1788455123 | 23.33° C | 66% | 1012.3 hPa | - | - | 120 W/m² | - |
| 1788454819 | 23.33° C | 64% | 1012.3 hPa | - | - | 110 W/m² | - |
| 1788454516 | 23.33° C | 65% | 1012.4 hPa | - | - | 131 W/m² | - |
| 1788454212 | 23.33° C | 65% | 1012.1 hPa | - | - | 110 W/m² | - |
| 1788453912 | 23.89° C | 65% | 1012.1 hPa | - | - | 92 W/m² | - |
| 1788453607 | 23.33° C | 65% | 1012.1 hPa | - | - | 69 W/m² | - |
| 1788453302 | 23.33° C | 66% | 1012.1 hPa | - | - | 92 W/m² | - |
| 1788452999 | 23.33° C | 68% | 1012.1 hPa | - | - | 95 W/m² | - |
| 1788452694 | 22.78° C | 70% | 1012.1 hPa | - | - | 124 W/m² | - |
| 1788452390 | 22.22° C | 71% | 1012.2 hPa | - | - | 141 W/m² | - |
| 1788452085 | 22.22° C | 72% | 1012.1 hPa | - | - | 116 W/m² | - |
| 1788451802 | 21.67° C | 72% | 1012.2 hPa | - | - | 119 W/m² | - |
| 1788451480 | 21.67° C | 73% | 1012.4 hPa | - | - | 90 W/m² | - |
| 1788451179 | 21.67° C | 73% | 1012.2 hPa | - | - | 71 W/m² | - |
| 1788450879 | 21.67° C | 74% | 1012.1 hPa | - | - | 56 W/m² | - |
| 1788450576 | 21.11° C | 75% | 1012.2 hPa | - | - | 54 W/m² | - |
| 1788450271 | 21.11° C | 76% | 1012 hPa | - | - | 53 W/m² | - |
| 1788449966 | 21.11° C | 78% | 1012.1 hPa | - | - | 53 W/m² | - |
* Rain since midnight (hover to see other rain measurements)
** Current wind speed in m/s (hover to see current wind gust speed)